US 13 & DE 14, Harrington DE USA current weather conditions

sailwx.info

Wind from 190 at 3 knots gusting 4

Air temperature 20.2° C
Dewpoint 18.6° C

Last reported at 2020-Sep-29 03:45 UTC.
Time now 2020-Sep-29 04:27 UTC

Location: N 38°55' W 075°34'.
View on Google Maps.

See reports from other nearby stations

  
Tides and Currents Weather Stations Pressure Air Temp Water Temp Dewpoint Dewpoint Depression Visibility Wind Speed Wind Dir Waves Ship Positions
date/time (UTC)wind fromknots sea level pressurealtimeterstation pressurevisibilityair tempwater tempwave heightnotes
2020-Sep-29 04:00 180 4 gusting 6 20.1
2020-Sep-29 03:50 195 4 gusting 5 20.2
2020-Sep-29 03:45 190 3 gusting 4 20.2
2020-Sep-29 03:40 200 2 gusting 6 20.2
2020-Sep-29 03:35 195 4 gusting 6 20.2
2020-Sep-29 03:30 200 3 gusting 6 20.2
2020-Sep-29 03:25 200 5 gusting 8 20.2
2020-Sep-29 03:20 195 5 gusting 8 20.4
2020-Sep-29 03:15 180 4 gusting 9 20.4
2020-Sep-29 03:10 190 5 gusting 9 20.2
2020-Sep-29 03:05 195 5 gusting 8 20.4
2020-Sep-29 03:00 180 4 gusting 7 20.2
2020-Sep-29 02:55 165 4 gusting 8 20.4
2020-Sep-29 02:50 180 6 gusting 8 20.4
2020-Sep-29 02:45 170 5 gusting 8 20.4
2020-Sep-29 02:40 175 5 gusting 7 20.4
2020-Sep-29 02:35 180 4 gusting 7 20.4
2020-Sep-29 02:30 180 4 gusting 7 20.4
2020-Sep-29 02:25 190 4 gusting 7 20.6
2020-Sep-29 02:20 170 3 gusting 8 20.6
2020-Sep-29 02:15 185 4 gusting 8 20.6
2020-Sep-29 02:10 180 4 gusting 8 20.6
2020-Sep-29 02:05 185 4 gusting 7 20.6
2020-Sep-29 02:00 165 4 gusting 7 20.6
2020-Sep-29 01:55 175 3 gusting 8 20.8
2020-Sep-29 01:50 175 4 gusting 8 20.9
2020-Sep-29 01:45 170 5 gusting 8 20.9
2020-Sep-29 01:40 175 4 gusting 11 21.1
2020-Sep-29 01:35 185 4 gusting 11 21.1
2020-Sep-29 01:30 185 6 gusting 10 21.1
2020-Sep-29 01:25 190 6 gusting 11 21.2
2020-Sep-29 01:20 175 6 gusting 11 21.4
2020-Sep-29 01:15 175 6 gusting 10 21.4
2020-Sep-29 01:10 175 5 gusting 10 21.4
2020-Sep-29 01:05 180 5 gusting 9 21.4
2020-Sep-29 01:00 170 5 gusting 8 21.6
2020-Sep-29 00:55 185 4 gusting 8 21.6
2020-Sep-29 00:50 175 5 gusting 9 21.8
2020-Sep-29 00:45 175 6 gusting 9 21.9
2020-Sep-29 00:40 165 4 gusting 9 21.9
2020-Sep-29 00:35 175 5 gusting 9 22.1
2020-Sep-29 00:30 175 5 gusting 11 22.1
2020-Sep-29 00:25 185 4 gusting 11 22.2
2020-Sep-29 00:20 170 5 gusting 9 22.4
2020-Sep-29 00:15 160 4 gusting 9 22.4
2020-Sep-29 00:10 170 6 gusting 9 22.6
2020-Sep-29 00:05 180 6 gusting 8 22.6
2020-Sep-29 00:00 175 6 gusting 9 22.9
2020-Sep-28 23:55 175 5 gusting 10 22.9
2020-Sep-28 23:50 185 5 gusting 10 23.1
2020-Sep-28 23:45 170 7 gusting 9 23.1
2020-Sep-28 23:40 170 4 gusting 8 23.2
2020-Sep-28 23:35 185 4 gusting 7 23.4
2020-Sep-28 23:30 190 5 gusting 7 23.6
2020-Sep-28 23:25 190 3 gusting 8 23.6
2020-Sep-28 23:20 170 4 gusting 8 23.8
2020-Sep-28 23:15 175 4 gusting 6 23.9
2020-Sep-28 23:10 145 2 gusting 5 24.1
2020-Sep-28 23:05 175 3 gusting 6 24.2
2020-Sep-28 23:00 160 4 gusting 6 24.4
2020-Sep-28 22:55 170 3 gusting 5 24.6
2020-Sep-28 22:50 145 3 gusting 5 24.8
2020-Sep-28 22:45 165 3 gusting 5 24.9
2020-Sep-28 22:40 160 1 gusting 5 25.2
2020-Sep-28 22:35 140 1 gusting 7 25.6
2020-Sep-28 22:30 165 5 gusting 7 25.9
2020-Sep-28 22:25 180 4 gusting 7 26.1
2020-Sep-28 22:20 130 2 gusting 6 26.6
2020-Sep-28 22:15 170 3 gusting 6 26.9
2020-Sep-28 22:10 175 3 gusting 6 27.2
2020-Sep-28 22:05 175 3 gusting 7 27.4
2020-Sep-28 22:00 190 4 gusting 7 27.2
2020-Sep-28 21:55 175 4 gusting 7 27.4
2020-Sep-28 21:50 180 4 gusting 8 27.4
2020-Sep-28 21:45 165 5 gusting 10 27.6
2020-Sep-28 21:40 185 6 gusting 10 27.6
2020-Sep-28 21:35 185 5 gusting 9 27.9
2020-Sep-28 21:30 165 6 gusting 9 27.9
2020-Sep-28 21:25 175 5 gusting 9 28.1
2020-Sep-28 21:20 195 7 gusting 9 28.1
2020-Sep-28 21:15 185 6 gusting 12 28.2
2020-Sep-28 21:10 190 6 gusting 12 28.1
2020-Sep-28 21:05 185 8 gusting 12 28.4
2020-Sep-28 21:00 180 7 gusting 10 28.4
2020-Sep-28 20:55 170 6 gusting 10 28.4
2020-Sep-28 20:50 170 5 gusting 10 28.4
2020-Sep-28 20:45 195 6 gusting 14 28.8
2020-Sep-28 20:40 185 8 gusting 12 28.6
2020-Sep-28 20:35 175 4 gusting 10 28.8
2020-Sep-28 20:30 185 8 gusting 10 28.6
2020-Sep-28 20:25 170 7 gusting 10 28.6
2020-Sep-28 20:20 180 7 gusting 10 28.8
2020-Sep-28 20:15 195 7 gusting 12 28.9
2020-Sep-28 20:10 195 7 gusting 12 28.8
2020-Sep-28 20:05 185 7 gusting 11 28.8
2020-Sep-28 20:00 195 7 gusting 11 28.8
2020-Sep-28 19:55 190 7 gusting 11 29.1
2020-Sep-28 19:50 195 7 gusting 11 28.9
2020-Sep-28 19:45 220 6 gusting 13 28.9
2020-Sep-28 19:40 195 10 gusting 13 28.8
2020-Sep-28 19:35 160 6 gusting 7 28.9
2020-Sep-28 19:30 220 5 gusting 8 28.9
2020-Sep-28 19:25 165 5 gusting 11 28.8
2020-Sep-28 19:20 195 6 gusting 11 28.8
2020-Sep-28 19:15 225 8 gusting 10 29.1
2020-Sep-28 19:10 225 4 gusting 9 29.1
2020-Sep-28 19:05 200 7 gusting 12 28.6
2020-Sep-28 19:00 190 7 gusting 13 28.2
2020-Sep-28 18:55 210 6 gusting 13 28.1
2020-Sep-28 18:50 195 8 gusting 13 28.4
2020-Sep-28 18:45 195 7 gusting 13 28.6
2020-Sep-28 18:40 230 7 gusting 13 28.8
2020-Sep-28 18:35 195 8 gusting 12 28.6
2020-Sep-28 18:30 170 9 gusting 13 28.4
2020-Sep-28 18:25 190 7 gusting 13 28.6
2020-Sep-28 18:20 195 7 gusting 10 28.6
2020-Sep-28 18:15 200 6 gusting 10 28.6
2020-Sep-28 18:10 180 6 gusting 11 28.6
2020-Sep-28 18:05 195 6 gusting 14 28.6
2020-Sep-28 18:00 185 10 gusting 14 28.4
2020-Sep-28 17:55 185 7 gusting 12 28.9
2020-Sep-28 17:50 225 4 gusting 11 28.6
2020-Sep-28 17:45 195 6 gusting 10 28.8
2020-Sep-28 17:40 200 4 gusting 10 28.4
2020-Sep-28 17:35 220 7 gusting 10 28.1
2020-Sep-28 17:30 200 6 gusting 8 28.2
2020-Sep-28 17:25 255 6 gusting 10 28.1
2020-Sep-28 17:20 245 4 gusting 12 28.2
2020-Sep-28 17:15 190 6 gusting 14 28.1
2020-Sep-28 17:10 195 7 gusting 14 27.9
2020-Sep-28 17:05 200 9 gusting 15 27.6
2020-Sep-28 17:00 190 10 gusting 15 27.6
2020-Sep-28 16:55 200 7 gusting 12 27.6
2020-Sep-28 16:50 200 8 gusting 12 27.6
2020-Sep-28 16:45 215 4 gusting 12 27.6
2020-Sep-28 16:40 225 6 gusting 12 27.6
2020-Sep-28 16:35 195 4 gusting 10 27.6
2020-Sep-28 16:30 225 7 gusting 13 27.1
2020-Sep-28 16:25 230 8 gusting 13 27.1
2020-Sep-28 16:20 205 8 gusting 13 27.1
2020-Sep-28 16:15 200 6 gusting 12 27.1
2020-Sep-28 16:10 230 7 gusting 11 27.1
2020-Sep-28 16:05 230 5 gusting 9 27.1
2020-Sep-28 16:00 190 5 gusting 11 27.1
2020-Sep-28 15:55 250 6 gusting 13 26.6
2020-Sep-28 15:50 240 6 gusting 13 26.4
2020-Sep-28 15:45 245 5 gusting 10 26.4
2020-Sep-28 15:40 240 5 gusting 11 26.4
2020-Sep-28 15:35 195 6 gusting 13 25.9
2020-Sep-28 15:30 195 8 gusting 12 25.9
2020-Sep-28 15:25 250 6 gusting 10 25.8
2020-Sep-28 15:20 210 6 gusting 10 25.6
2020-Sep-28 15:15 180 5 gusting 9 25.4
2020-Sep-28 15:10 185 5 gusting 13 24.9
2020-Sep-28 15:05 220 7 gusting 13 24.8
2020-Sep-28 15:00 195 8 gusting 12 24.6
2020-Sep-28 14:55 220 6 gusting 8 24.8
2020-Sep-28 14:50 195 5 gusting 11 24.4
2020-Sep-28 14:45 190 6 gusting 11 24.1
2020-Sep-28 14:40 190 5 gusting 9 23.9
2020-Sep-28 14:35 215 6 gusting 11 23.8
2020-Sep-28 14:30 195 6 gusting 11 23.6
2020-Sep-28 14:25 205 6 gusting 11 23.4
2020-Sep-28 14:20 190 7 gusting 10 23.1
2020-Sep-28 14:15 195 6 gusting 8 22.9
2020-Sep-28 14:10 200 5 gusting 7 22.6
2020-Sep-28 14:05 205 5 gusting 9 22.1
2020-Sep-28 14:00 200 5 gusting 9 21.9
2020-Sep-28 13:55 200 6 gusting 8 21.8
2020-Sep-28 13:50 185 4 gusting 7 21.8
2020-Sep-28 13:45 220 4 gusting 9 21.4
2020-Sep-28 13:40 230 4 gusting 9 21.1
2020-Sep-28 13:35 220 4 gusting 8 21.1
2020-Sep-28 13:30 225 6 gusting 8 21.1
2020-Sep-28 13:25 215 4 gusting 8 21.1
2020-Sep-28 13:20 190 4 gusting 7 20.9
2020-Sep-28 13:15 215 4 gusting 9 20.9
2020-Sep-28 13:10 190 5 gusting 9 20.9
2020-Sep-28 13:05 185 5 gusting 9 20.9
2020-Sep-28 13:00 190 6 gusting 9 20.8
2020-Sep-28 12:55 195 5 gusting 9 20.6
2020-Sep-28 12:50 195 6 gusting 10 20.6
2020-Sep-28 12:45 185 5 gusting 8 20.4
2020-Sep-28 12:40 180 4 gusting 8 20.4
2020-Sep-28 12:35 200 6 gusting 7 20.2
2020-Sep-28 12:30 180 3 gusting 6 20.2
2020-Sep-28 12:25 200 5 gusting 6 20.2
2020-Sep-28 12:20 180 4 gusting 5 20.1
2020-Sep-28 12:15 195 3 gusting 7 20.1
2020-Sep-28 12:10 185 4 gusting 7 19.9
2020-Sep-28 12:05 185 5 gusting 7 19.9
2020-Sep-28 12:00 170 4 gusting 6 19.9
2020-Sep-28 11:55 180 4 gusting 7 19.9
2020-Sep-28 11:50 190 3 gusting 7 19.9
2020-Sep-28 11:45 185 3 gusting 6 19.9
2020-Sep-28 11:40 190 3 gusting 6 19.9
2020-Sep-28 11:35 165 2 gusting 5 19.9
2020-Sep-28 11:30 140 3 gusting 5 19.9
2020-Sep-28 11:25 190 3 gusting 5 19.8
2020-Sep-28 11:20 185 2 gusting 5 19.9
2020-Sep-28 11:15 185 4 gusting 5 19.9
2020-Sep-28 11:10 180 2 gusting 5 19.9
2020-Sep-28 11:05 185 2 gusting 5 19.9
2020-Sep-28 11:00 175 2 gusting 5 19.9
2020-Sep-28 10:55 185 2 gusting 5 19.9
2020-Sep-28 10:50 175 3 gusting 5 19.9
2020-Sep-28 10:45 160 2 gusting 6 19.9
2020-Sep-28 10:40 170 2 gusting 6 19.8
2020-Sep-28 10:35 185 2 gusting 5 19.9
2020-Sep-28 10:30 170 3 gusting 5 19.9
2020-Sep-28 10:25 140 3 gusting 6 19.9
2020-Sep-28 10:20 165 2 gusting 6 19.9
2020-Sep-28 10:15 180 3 gusting 5 19.9
2020-Sep-28 10:10 155 1 gusting 5 19.9
2020-Sep-28 10:05 155 3 gusting 5 19.9
2020-Sep-28 10:00 190 2 gusting 5 19.9
2020-Sep-28 09:55 170 3 gusting 5 19.9
2020-Sep-28 09:50 155 3 gusting 5 19.9
2020-Sep-28 09:45 160 3 gusting 5 20.1
2020-Sep-28 09:40 185 1 gusting 5 20.1
2020-Sep-28 09:35 180 3 gusting 6 20.1
2020-Sep-28 09:30 190 4 gusting 6 20.1
2020-Sep-28 09:25 180 3 gusting 5 20.1
2020-Sep-28 09:20 195 3 gusting 5 20.2
2020-Sep-28 09:15 180 3 gusting 5 20.2
2020-Sep-28 09:10 185 3 gusting 4 20.2
2020-Sep-28 09:05 165 2 gusting 4 20.4
2020-Sep-28 09:00 180 2 gusting 6 20.4
2020-Sep-28 08:55 195 3 gusting 6 20.4
2020-Sep-28 08:50 200 3 gusting 5 20.4
2020-Sep-28 08:45 175 3 gusting 7 20.4
2020-Sep-28 08:40 195 4 gusting 7 20.4
2020-Sep-28 08:35 195 3 gusting 6 20.4
2020-Sep-28 08:30 200 4 gusting 6 20.4
2020-Sep-28 08:25 200 3 gusting 5 20.4
2020-Sep-28 08:20 180 3 gusting 5 20.4
2020-Sep-28 08:15 180 3 gusting 5 20.4
2020-Sep-28 08:10 185 3 gusting 5 20.6
2020-Sep-28 08:05 190 2 gusting 6 20.6
2020-Sep-28 08:00 195 3 gusting 6 20.6
2020-Sep-28 07:55 205 4 gusting 5 20.4
2020-Sep-28 07:50 200 3 gusting 5 20.6
2020-Sep-28 07:45 200 2 gusting 8 20.6
2020-Sep-28 07:40 230 2 gusting 8 20.6
2020-Sep-28 07:35 190 3 gusting 5 20.6
2020-Sep-28 07:30 190 4 gusting 6 20.6
2020-Sep-28 07:25 195 4 gusting 6 20.8
2020-Sep-28 07:20 185 3 gusting 5 20.8
2020-Sep-28 07:15 180 4 gusting 6 20.8
2020-Sep-28 07:10 175 3 gusting 6 20.8
2020-Sep-28 07:05 180 3 gusting 6 20.8
2020-Sep-28 07:00 175 3 gusting 6 20.8
2020-Sep-28 06:55 200 3 gusting 7 20.8
2020-Sep-28 06:50 195 4 gusting 7 20.8
2020-Sep-28 06:45 210 3 gusting 7 20.8
2020-Sep-28 06:40 195 4 gusting 8 20.6
2020-Sep-28 06:35 195 4 gusting 8 20.6
2020-Sep-28 06:30 210 5 gusting 8 20.6
2020-Sep-28 06:25 190 5 gusting 10 20.6
2020-Sep-28 06:20 200 5 gusting 10 20.6
2020-Sep-28 06:15 200 5 gusting 10 20.6
2020-Sep-28 06:10 185 4 gusting 10 20.6
2020-Sep-28 06:05 200 6 gusting 10 20.6
2020-Sep-28 06:00 200 5 gusting 7 20.6
2020-Sep-28 05:55 190 4 gusting 8 20.6
2020-Sep-28 05:50 195 5 gusting 8 20.6
2020-Sep-28 05:45 180 4 gusting 7 20.6
2020-Sep-28 05:40 185 4 gusting 6 20.6
2020-Sep-28 05:35 185 3 gusting 6 20.6
2020-Sep-28 05:30 180 4 gusting 6 20.6
2020-Sep-28 05:25 175 3 gusting 5 20.6
2020-Sep-28 05:20 170 4 gusting 6 20.8
2020-Sep-28 05:15 190 4 gusting 6 20.8
2020-Sep-28 05:10 190 5 gusting 6 20.8
2020-Sep-28 05:05 175 4 gusting 6 20.8
2020-Sep-28 05:00 190 4 gusting 6 20.9
2020-Sep-28 04:55 175 3 gusting 6 20.8
2020-Sep-28 04:50 180 3 gusting 5 20.9
2020-Sep-28 04:45 185 4 gusting 5 20.9
2020-Sep-28 04:40 180 3 gusting 6 20.9
2020-Sep-28 04:35 180 4 gusting 6 20.9
2020-Sep-28 04:30 180 4 gusting 6 21.1
2020-Sep-28 04:25 190 3 gusting 7 21.1
2020-Sep-28 04:20 185 4 gusting 7 21.1
2020-Sep-28 04:15 185 4 gusting 6 21.1
2020-Sep-28 04:10 185 5 gusting 6 21.1
2020-Sep-28 04:05 190 4 gusting 7 21.1
2020-Sep-28 04:00 220 2 gusting 7 21.1
2020-Sep-28 03:55 200 4 gusting 7 21.1
2020-Sep-28 03:50 195 5 gusting 6 21.2
2020-Sep-28 03:45 195 3 gusting 9 21.4
2020-Sep-28 03:40 195 5 gusting 9 21.4
2020-Sep-28 03:35 210 4 gusting 6 21.4
2020-Sep-28 03:30 200 4 gusting 6 21.4
2020-Sep-28 03:25 210 3 gusting 9 21.6
2020-Sep-28 03:20 220 3 gusting 9 21.6
2020-Sep-28 03:15 205 6 gusting 9 21.6
2020-Sep-28 03:10 200 4 gusting 8 21.8
2020-Sep-28 03:05 215 5 gusting 8 21.8
2020-Sep-28 03:00 200 5 gusting 7 21.8
2020-Sep-28 02:55 225 4 gusting 9 21.8
2020-Sep-28 02:50 190 4 gusting 10 21.9
2020-Sep-28 02:45 180 6 gusting 10 21.8
2020-Sep-28 02:40 180 6 gusting 8 21.8
2020-Sep-28 02:35 175 4 gusting 6 21.8
2020-Sep-28 02:30 180 4 gusting 6 21.8
2020-Sep-28 02:25 120 2 gusting 4 21.8
2020-Sep-28 02:20 145 2 gusting 4 21.6
2020-Sep-28 02:15 145 1 gusting 4 21.8
2020-Sep-28 02:10 125 1 gusting 3 21.6
2020-Sep-28 02:05 120 2 gusting 3 21.8
2020-Sep-28 02:00 140 1 gusting 5 21.8
2020-Sep-28 01:55 175 2 gusting 5 21.8
2020-Sep-28 01:50 140 3 gusting 4 21.8
2020-Sep-28 01:45 155 1 gusting 3 21.8
2020-Sep-28 01:40 130 1 gusting 3 21.8
2020-Sep-28 01:35 145 1 gusting 4 21.8
2020-Sep-28 01:30 125 1 gusting 4 21.8
2020-Sep-28 01:25 125 1 gusting 4 21.8
2020-Sep-28 01:20 120 2 gusting 4 21.8
2020-Sep-28 01:15 115 1 gusting 2 21.9
2020-Sep-28 01:10 175 1 gusting 3 21.9
2020-Sep-28 01:05 120 1 gusting 3 21.9
2020-Sep-28 01:00 090 1 gusting 3 21.9
2020-Sep-28 00:55 135 2 gusting 2 21.9
2020-Sep-28 00:50 120 1 gusting 2 22.1
2020-Sep-28 00:45 125 1 gusting 2 22.1
2020-Sep-28 00:40 150 1 gusting 3 22.1
2020-Sep-28 00:35 150 1 gusting 3 22.1
2020-Sep-28 00:30 130 2 gusting 3 22.1
2020-Sep-28 00:25 145 1 gusting 3 22.4
2020-Sep-28 00:20 135 3 gusting 3 22.4
2020-Sep-28 00:15 130 1 gusting 2 22.4
2020-Sep-28 00:10 145 1 gusting 2 22.4
2020-Sep-28 00:05 155 0 gusting 2 22.6
2020-Sep-28 00:00 085 1 gusting 3 22.6
2020-Sep-27 23:55 090 0 gusting 3 22.6
2020-Sep-27 23:50 165 1 gusting 3 22.6
2020-Sep-27 23:45 105 1 gusting 4 22.6
2020-Sep-27 23:40 105 2 gusting 6 22.6
2020-Sep-27 23:35 110 2 gusting 6 22.6
2020-Sep-27 23:30 120 2 gusting 6 22.9
2020-Sep-27 23:25 140 2 gusting 6 22.9
2020-Sep-27 23:20 105 2 gusting 6 23.1
2020-Sep-27 23:15 090 3 gusting 6 23.1
2020-Sep-27 23:10 120 3 gusting 4 23.1
2020-Sep-27 23:05 110 2 gusting 3 23.2
2020-Sep-27 23:00 125 1 gusting 3 23.2
2020-Sep-27 22:55 105 1 gusting 3 23.4
2020-Sep-27 22:50 085 2 gusting 3 23.4
2020-Sep-27 22:45 105 2 gusting 3 23.6
2020-Sep-27 22:40 100 2 gusting 2 23.6
2020-Sep-27 22:35 095 2 gusting 2 23.8
2020-Sep-27 22:30 080 1 gusting 2 23.9
2020-Sep-27 22:25 100 2 gusting 2 23.9
2020-Sep-27 22:20 125 1 gusting 2 24.1
2020-Sep-27 22:15 100 1 gusting 2 24.2
2020-Sep-27 22:10 080 2 gusting 3 24.4
2020-Sep-27 22:05 040 2 gusting 3 24.4
2020-Sep-27 22:00 035 2 gusting 3 24.6
2020-Sep-27 21:55 025 1 gusting 2 24.6
2020-Sep-27 21:50 025 2 gusting 2 24.6
2020-Sep-27 21:45 085 1 gusting 2 24.8
2020-Sep-27 21:40 075 2 gusting 2 24.9
2020-Sep-27 21:35 055 1 gusting 4 24.9
2020-Sep-27 21:30 110 2 gusting 5 25.1
2020-Sep-27 21:25 085 2 gusting 5 25.4
2020-Sep-27 21:20 060 2 gusting 4 25.2
2020-Sep-27 21:15 075 3 gusting 4 25.1
2020-Sep-27 21:10 115 3 gusting 5 25.1
2020-Sep-27 21:05 095 3 gusting 6 25.1
2020-Sep-27 21:00 065 4 gusting 6 25.1
2020-Sep-27 20:55 090 5 gusting 6 25.2
2020-Sep-27 20:50 065 2 gusting 5 25.4
2020-Sep-27 20:45 105 2 gusting 6 25.4
2020-Sep-27 20:40 090 4 gusting 6 25.6
2020-Sep-27 20:35 100 4 gusting 6 25.6
2020-Sep-27 20:30 070 4 gusting 6 25.4
2020-Sep-27 20:25 080 1 gusting 6 25.4
2020-Sep-27 20:20 075 2 gusting 6 25.4
2020-Sep-27 20:15 085 4 gusting 6 25.1
2020-Sep-27 20:10 085 3 gusting 6 25.2
2020-Sep-27 20:05 060 2 gusting 6 25.4
2020-Sep-27 20:00 100 4 gusting 6 25.1
2020-Sep-27 19:55 100 5 gusting 6 25.4
2020-Sep-27 19:50 045 4 gusting 6 25.6
2020-Sep-27 19:45 055 3 gusting 6 25.6
2020-Sep-27 19:40 070 3 gusting 7 25.6
2020-Sep-27 19:35 080 3 gusting 7 25.9
2020-Sep-27 19:30 040 2 gusting 4 26.1
2020-Sep-27 19:25 060 2 gusting 6 26.1
2020-Sep-27 19:20 025 3 gusting 6 26.1
2020-Sep-27 19:15 065 2 gusting 6 25.9
2020-Sep-27 19:10 035 3 gusting 6 25.6
2020-Sep-27 19:05 070 2 gusting 5 25.4
2020-Sep-27 19:00 090 4 gusting 4 25.2
2020-Sep-27 18:55 065 2 gusting 4 25.4
2020-Sep-27 18:50 015 2 gusting 4 25.4
2020-Sep-27 18:45 040 2 gusting 4 25.1
2020-Sep-27 18:40 075 1 gusting 5 25.1
2020-Sep-27 18:35 055 4 gusting 5 24.9
2020-Sep-27 18:30 055 4 gusting 5 24.9
2020-Sep-27 18:25 090 2 gusting 5 24.9
2020-Sep-27 18:20 050 3 gusting 5 25.1
2020-Sep-27 18:15 075 2 gusting 4 25.1
2020-Sep-27 18:10 075 1 gusting 4 25.2
2020-Sep-27 18:05 095 2 gusting 4 25.4
2020-Sep-27 18:00 070 1 gusting 4 25.6
2020-Sep-27 17:55 265 0 gusting 5 25.8
2020-Sep-27 17:50 115 1 gusting 6 25.8
2020-Sep-27 17:45 055 3 gusting 6 26.2
2020-Sep-27 17:40 070 0 gusting 3 26.6
2020-Sep-27 17:35 100 1 gusting 4 26.6
2020-Sep-27 17:30 030 2 gusting 6 26.2
2020-Sep-27 17:25 025 3 gusting 6 25.9
2020-Sep-27 17:20 020 2 gusting 6 25.8
2020-Sep-27 17:15 025 4 gusting 6 25.4
2020-Sep-27 17:10 115 2 gusting 4 25.4
2020-Sep-27 17:05 055 3 gusting 6 25.4
2020-Sep-27 17:00 060 4 gusting 6 25.6
2020-Sep-27 16:55 005 3 gusting 7 24.9
2020-Sep-27 16:50 100 5 gusting 7 24.8
2020-Sep-27 16:45 105 4 gusting 6 24.8
2020-Sep-27 16:40 105 2 gusting 6 24.9
2020-Sep-27 16:35 070 4 gusting 6 24.8
2020-Sep-27 16:30 115 2 gusting 6 25.1
2020-Sep-27 16:25 055 3 gusting 6 24.9
2020-Sep-27 16:20 075 4 gusting 7 24.4
2020-Sep-27 16:15 105 4 gusting 7 24.4
2020-Sep-27 16:10 085 4 gusting 6 24.6
2020-Sep-27 16:05 090 2 gusting 7 25.1
2020-Sep-27 16:00 055 5 gusting 7 25.4
2020-Sep-27 15:55 100 2 gusting 7 25.4
2020-Sep-27 15:50 035 4 gusting 8 25.2
2020-Sep-27 15:45 060 4 gusting 8 24.9
2020-Sep-27 15:40 065 3 gusting 6 24.8
2020-Sep-27 15:35 055 2 gusting 6 24.4
2020-Sep-27 15:30 065 3 gusting 6 24.1
2020-Sep-27 15:25 105 4 gusting 9 23.6
2020-Sep-27 15:20 055 5 gusting 9 23.6
2020-Sep-27 15:15 080 3 gusting 7 23.1
2020-Sep-27 15:10 075 3 gusting 7 22.8
2020-Sep-27 15:05 105 4 gusting 8 22.6
2020-Sep-27 15:00 110 5 gusting 8 22.6
2020-Sep-27 14:55 090 5 gusting 7 22.8
2020-Sep-27 14:50 070 4 gusting 7 22.6
2020-Sep-27 14:45 055 4 gusting 7 22.6
2020-Sep-27 14:40 050 4 gusting 7 22.4
2020-Sep-27 14:35 035 3 gusting 7 22.2
2020-Sep-27 14:30 050 4 gusting 6 22.1
2020-Sep-27 14:25 085 3 gusting 6 21.8
2020-Sep-27 14:20 105 4 gusting 6 21.8
2020-Sep-27 14:15 085 5 gusting 6 21.6
2020-Sep-27 14:10 090 3 gusting 7 21.6
2020-Sep-27 14:05 055 3 gusting 8 21.4
2020-Sep-27 14:00 090 4 gusting 8 21.1
2020-Sep-27 13:55 095 5 gusting 7 21.1
2020-Sep-27 13:50 100 3 gusting 7 21.1
2020-Sep-27 13:45 090 3 gusting 7 21.1
2020-Sep-27 13:40 090 5 gusting 6 20.9
2020-Sep-27 13:35 060 3 gusting 7 20.9
2020-Sep-27 13:30 050 4 gusting 7 20.9
2020-Sep-27 13:25 075 2 gusting 5 20.9
2020-Sep-27 13:20 075 2 gusting 5 20.8
2020-Sep-27 13:15 090 2 gusting 6 20.6
2020-Sep-27 13:10 090 3 gusting 7 20.6
2020-Sep-27 13:05 085 3 gusting 7 20.6
2020-Sep-27 13:00 065 4 gusting 6 20.4
2020-Sep-27 12:55 090 4 gusting 6 20.4
2020-Sep-27 12:50 060 2 gusting 5 20.2
2020-Sep-27 12:45 085 3 gusting 5 20.2
2020-Sep-27 12:40 055 2 gusting 5 20.2
2020-Sep-27 12:35 080 2 gusting 3 20.2
2020-Sep-27 12:30 035 1 gusting 3 20.2
2020-Sep-27 12:25 040 2 gusting 5 20.1
2020-Sep-27 12:20 055 2 gusting 5 20.1
2020-Sep-27 12:15 090 2 gusting 5 20.1
2020-Sep-27 12:10 065 2 gusting 5 20.1
2020-Sep-27 12:05 060 2 gusting 4 20.1
2020-Sep-27 12:00 075 1 gusting 3 20.1
2020-Sep-27 11:55 055 1 gusting 4 20.1
2020-Sep-27 11:50 055 2 gusting 4 19.9
2020-Sep-27 11:45 055 2 gusting 4 19.9
2020-Sep-27 11:40 050 1 gusting 2 19.9
2020-Sep-27 11:35 075 1 gusting 3 19.9
2020-Sep-27 11:30 065 2 gusting 3 19.9
2020-Sep-27 11:25 065 1 gusting 3 19.9
2020-Sep-27 11:20 050 0 gusting 2 19.9
2020-Sep-27 11:15 045 1 gusting 2 19.9
2020-Sep-27 11:10 025 1 gusting 2 19.9
2020-Sep-27 11:05 055 1 gusting 2 19.9
2020-Sep-27 11:00 055 1 gusting 2 19.9
2020-Sep-27 10:55 090 1 gusting 2 19.9
2020-Sep-27 10:50 070 1 gusting 2 19.9
2020-Sep-27 10:45 060 0 gusting 2 19.9
2020-Sep-27 10:40 095 1 gusting 3 19.9
2020-Sep-27 10:35 035 2 gusting 3 19.9
2020-Sep-27 10:30 045 1 gusting 3 19.9
2020-Sep-27 10:25 060 1 gusting 2 19.9
2020-Sep-27 10:20 035 1 gusting 4 19.9
2020-Sep-27 10:15 055 1 gusting 4 19.9
2020-Sep-27 10:10 095 1 gusting 4 19.9
2020-Sep-27 10:05 080 1 gusting 4 19.9
2020-Sep-27 10:00 080 1 gusting 4 19.9
2020-Sep-27 09:55 075 1 gusting 4 19.9
2020-Sep-27 09:50 055 2 gusting 5 19.9
2020-Sep-27 09:45 085 2 gusting 5 19.9
2020-Sep-27 09:40 055 1 gusting 3 19.9
2020-Sep-27 09:35 065 1 gusting 3 19.9
2020-Sep-27 09:30 080 2 gusting 4 19.9
2020-Sep-27 09:25 065 1 gusting 4 19.9
2020-Sep-27 09:20 070 2 gusting 4 19.9
2020-Sep-27 09:15 050 1 gusting 3 19.9
2020-Sep-27 09:10 050 1 gusting 2 19.9
2020-Sep-27 09:05 055 0 gusting 1 19.9
2020-Sep-27 09:00 050 0 gusting 1 19.9
2020-Sep-27 08:55 095 1 gusting 1 19.9
2020-Sep-27 08:50 075 19.9
2020-Sep-27 08:45 060 1 gusting 2 19.9
2020-Sep-27 08:40 055 0 gusting 4 19.9
2020-Sep-27 08:35 065 1 gusting 4 19.9
2020-Sep-27 08:30 090 1 gusting 3 19.9
2020-Sep-27 08:25 090 0 gusting 3 19.9
2020-Sep-27 08:20 050 1 gusting 3 19.6
2020-Sep-27 08:15 045 2 gusting 3 19.8
2020-Sep-27 08:10 040 1 gusting 2 19.8
2020-Sep-27 08:05 070 1 gusting 2 19.8
2020-Sep-27 08:00 090 1 gusting 2 19.9
2020-Sep-27 07:55 105 1 gusting 2 19.8
2020-Sep-27 07:50 110 0 gusting 3 19.8
2020-Sep-27 07:45 090 1 gusting 3 19.8
2020-Sep-27 07:40 070 2 gusting 3 19.6
2020-Sep-27 07:35 045 1 gusting 4 19.8
2020-Sep-27 07:30 065 3 gusting 4 19.6
2020-Sep-27 07:25 035 1 gusting 4 19.8
2020-Sep-27 07:20 055 3 gusting 4 19.6
2020-Sep-27 07:15 090 1 gusting 4 19.8
2020-Sep-27 07:10 075 2 gusting 4 19.8
2020-Sep-27 07:05 070 19.9
2020-Sep-27 07:00 105 2 gusting 3 19.9
2020-Sep-27 06:55 100 1 gusting 2 19.9
2020-Sep-27 06:50 060 1 gusting 3 19.8
2020-Sep-27 06:45 090 1 gusting 3 19.8
2020-Sep-27 06:40 130 1 gusting 2 19.8
2020-Sep-27 06:35 110 19.8
2020-Sep-27 06:30 035 0 gusting 2 19.8
2020-Sep-27 06:25 075 1 gusting 2 19.8
2020-Sep-27 06:20 095 1 gusting 3 19.6
2020-Sep-27 06:15 090 2 gusting 3 19.6
2020-Sep-27 06:10 090 1 gusting 3 19.6
2020-Sep-27 06:05 090 2 gusting 3 19.6
2020-Sep-27 06:00 065 1 gusting 3 19.6
2020-Sep-27 05:55 080 2 gusting 3 19.6
2020-Sep-27 05:50 080 2 gusting 3 19.6
2020-Sep-27 05:45 045 1 gusting 3 19.6
2020-Sep-27 05:40 085 2 gusting 3 19.6
2020-Sep-27 05:35 045 1 gusting 3 19.6
2020-Sep-27 05:30 035 2 gusting 3 19.6
2020-Sep-27 05:25 045 2 gusting 3 19.6
2020-Sep-27 05:20 060 1 gusting 3 19.6
2020-Sep-27 05:15 055 1 gusting 3 19.4
2020-Sep-27 05:10 100 1 gusting 3 19.6
2020-Sep-27 05:05 045 0 gusting 3 19.6
2020-Sep-27 05:00 085 1 gusting 4 19.4
2020-Sep-27 04:55 090 3 gusting 4 19.6
2020-Sep-27 04:50 060 1 gusting 3 19.6
2020-Sep-27 04:45 050 2 gusting 3 19.6
2020-Sep-27 04:40 025 2 gusting 2 19.6
2020-Sep-27 04:35 005 1 gusting 3 19.6
2020-Sep-27 04:30 050 1 gusting 3 19.4
2020-Sep-27 04:25 095 2 gusting 4 19.4
2020-Sep-27 04:20 110 2 gusting 4 19.6
2020-Sep-27 04:15 095 2 gusting 3 19.6
2020-Sep-27 04:10 100 1 gusting 3 19.4
2020-Sep-27 04:05 095 2 gusting 3 19.4
2020-Sep-27 04:00 110 1 gusting 2 19.4